Search for airport 
image banner adimage banner ad
image banner ad

SVVX - Melia Caribe

Located in Caraballeda, Venezuela

ICAO - SVVX, IATA -

Data provided by Airmate  

General information

Coordinates: N10°37'10" W66°58'10"
Elevation is 621 feet MSL.
 
View others Airports in Bolívar

Operational data

Open for public use
Current time UTC:
Current local time:
METAR: SVMI 222300Z 09006KT 9999 SCT016 25/22 Q1011
TAF: TAF SVMI 222200Z 2218/2318 09002KT 9999 SCT016 TX31/2218Z TN25/2208Z BECMG 2218/2222 09004KT BKN016
View NOTAMs / SUP AIP / TFR affecting this airport [VIEW]
Communications frequencies: [VIEW]

Runways:

Airport contact information

Address: Caraballeda Venezuela

Satellite view of SVVX